Flag for U.S.A. Weather past 2 weeks in Bloomington, Illinois, U.S.A.

Now
60 °F

Clear.


Feels Like: 58 °F
Forecast: 59 / 78 °F
Wind: 12 mph from Northeast

Location: Bloomington / Normal

Current Time: Jul 3, 2015 at 2:19:14 AM

Latest Report: Jul 3, 2015 at 1:56 AM


Visibility: 8 mi

Pressure: 29.93 "Hg

Humidity: 93%

Dew point: 58 °F

Location of BloomingtonLocation

Historic Weather in Bloomington — Graph

°F

Bloomington temperature yesterday

Maximum temperature yesterday: 77 °F (at 4:56 PM)
Minimum temperature yesterday: 56 °F (at 5:56 AM)
Average temperature yesterday: 66 °F

Past Weeks' High & Low Weather Summary

 TemperatureHumidityPressure
High86 °F (Jun 22, 3:56 PM)100% (Jun 18, 12:56 AM)30.22 "Hg (Jun 18, 12:56 AM)
Low56 °F (Jul 2, 5:56 AM)44% (Jun 23, 5:56 PM)29.73 "Hg (Jun 29, 3:56 AM)
Average71 °F82%29.93 "Hg
* Reported Jun 18 12:56 AM — Jul 3 12:56 AM, Bloomington, Weather by CustomWeather, © 2015

Note: Actual official high and low records may vary slightly from our data, if they occured in-between our weather recording intervals... More about our weather records

Advertising

Bloomington weather history for previous 24 hours

 ConditionsComfort  
Time TempWeatherWind HumidityBarometerVisibility
12:56 AM
Fri, Jul 3
61 °FPassing clouds.8 mph93%29.94 "Hg9 mi
11:56 PM
Thu, Jul 2
62 °FClear.12 mph90%29.94 "Hg10 mi
10:56 PM64 °FClear.9 mph87%29.94 "Hg10 mi
9:56 PM65 °FClear.9 mph87%29.94 "Hg10 mi
8:56 PM67 °FSunny.9 mph84%29.93 "Hg10 mi
7:56 PM70 °FSunny.13 mph76%29.92 "Hg10 mi
6:56 PM73 °FSunny.10 mph66%29.90 "Hg10 mi
5:56 PM76 °FPassing clouds.8 mph56%29.91 "Hg10 mi
4:56 PM77 °FSunny.12 mph54%29.91 "Hg10 mi
3:56 PM76 °FSunny.13 mph58%29.92 "Hg10 mi
2:56 PM76 °FPassing clouds.13 mph56%29.93 "Hg10 mi
1:56 PM75 °FScattered clouds.17 mph60%29.92 "Hg10 mi
12:56 PM72 °FScattered clouds.14 mph66%29.94 "Hg10 mi
11:56 AM71 °FScattered clouds.16 mph66%29.95 "Hg10 mi
10:56 AM67 °FPartly sunny.15 mph73%29.96 "Hg10 mi
10:01 AM64 °FPartly sunny.14 mph78%29.98 "Hg10 mi
8:56 AM61 °FScattered clouds.16 mph83%29.95 "Hg10 mi
7:56 AM58 °FFog.16 mph93%29.96 "Hg6 mi
6:56 AM57 °FFog.14 mph97%29.96 "Hg5 mi
5:56 AM56 °FFog.10 mph96%29.93 "Hg4 mi
4:56 AM57 °FFog.12 mph93%29.91 "Hg6 mi
3:56 AM57 °FClear.10 mph97%29.91 "Hg10 mi
2:56 AM59 °FPassing clouds.12 mph86%29.94 "Hg10 mi
Weather by CustomWeather, © 2015

See weather overviewHow to use our weather pages